Find Starlink 5669

NORAD ID: 55459 Int'l Des: 2023-015 Owner: SPXS Country: US Constellation: starlink operational
LEOCIRCULAR

Live Position

Loading 3D Globe...

About Starlink 5669

Description loading...

Upcoming Passes

Passes for default location (London). Set your location on the main map for personalized predictions.

Altitude History

Loading altitude history...

Two-Line Element Set

1 55459U 23015L 26121.46305337 .00000497 00000-0 28220-4 0 9990
2 55459 43.0069 30.6378 0001267 265.7304 94.3403 15.26743240178791
Epoch: May 1, 2026 • Age: 16 hours

Current Status

Altitude 484.8 km
Velocity 7.63 km/s
Sub-Earth Point 11.04°N, 135.61°E
Launch Date Feb 2, 2023
Age 3.2 years
Type internet

Technical Details

Classification Payload
Mass 305.00 kg
Dry Mass 290.00 kg
Total Mass 305.00 kg
Length 0.20 m
Diameter 2.80 m
Span 9.00 m
Shape Box + pan
Manufacturer SPXS
Bus Type Starlink
Phase Status In Orbit
Owner/State SPXS/US

Most Searched